TimeCST,TemperatureF,Dew PointF,Humidity,Sea Level PressureIn,VisibilityMPH,Wind Direction,Wind SpeedMPH,Gust SpeedMPH,PrecipitationIn,Events,Conditions,WindDirDegrees,DateUTC
12:53 AM,10.9,5.0,77,30.40,10.0,East,4.6,-,N/A,,Clear,100,2013-02-21 06:53:00
1:53 AM,10.9,3.9,73,30.41,10.0,East,4.6,-,N/A,,Clear,90,2013-02-21 07:53:00
2:53 AM,9.0,3.0,77,30.40,10.0,ENE,8.1,-,N/A,,Clear,70,2013-02-21 08:53:00
3:53 AM,9.0,3.9,80,30.37,10.0,ENE,9.2,-,N/A,,Clear,70,2013-02-21 09:53:00
4:53 AM,10.0,3.9,76,30.26,10.0,ENE,12.7,-,N/A,,Clear,70,2013-02-21 10:53:00
5:53 AM,10.9,3.9,73,30.39,10.0,East,8.1,-,N/A,,Mostly Cloudy,100,2013-02-21 11:53:00
6:53 AM,10.9,3.9,73,30.36,10.0,East,9.2,-,N/A,,Clear,80,2013-02-21 12:53:00
7:53 AM,12.2,5.0,73,30.29,10.0,East,12.7,-,N/A,,Scattered Clouds,80,2013-02-21 13:53:00
8:53 AM,14.0,6.1,71,30.36,10.0,East,11.5,-,N/A,,Scattered Clouds,90,2013-02-21 14:53:00
9:53 AM,16.0,7.0,68,30.35,10.0,East,10.4,-,N/A,,Clear,90,2013-02-21 15:53:00
10:53 AM,19.0,8.1,62,30.34,10.0,East,12.7,-,N/A,,Clear,100,2013-02-21 16:53:00
11:53 AM,21.0,9.0,60,30.29,10.0,East,13.8,-,N/A,,Clear,90,2013-02-21 17:53:00
12:53 PM,23.0,10.0,58,30.25,10.0,East,15.0,-,N/A,,Clear,80,2013-02-21 18:53:00
1:53 PM,23.0,10.9,60,30.21,10.0,ENE,17.3,-,N/A,,Clear,70,2013-02-21 19:53:00
2:53 PM,23.0,12.0,63,30.18,10.0,ENE,21.9,-,N/A,,Mostly Cloudy,70,2013-02-21 20:53:00
3:53 PM,21.9,10.9,63,30.16,10.0,East,20.7,-,N/A,,Overcast,80,2013-02-21 21:53:00
4:53 PM,21.0,10.9,65,30.15,10.0,ENE,17.3,-,N/A,,Overcast,70,2013-02-21 22:53:00
5:50 PM,21.2,10.4,63,30.10,10.0,ENE,13.8,24.2,N/A,,Overcast,70,2013-02-21 23:50:00
5:53 PM,21.0,10.9,65,30.15,10.0,ENE,16.1,-,N/A,,Overcast,70,2013-02-21 23:53:00
6:53 PM,19.9,10.9,68,30.13,10.0,ENE,16.1,-,N/A,,Overcast,60,2013-02-22 00:53:00
7:53 PM,19.0,12.0,74,30.09,3.0,NE,19.6,-,0.00,Snow,Light Snow,50,2013-02-22 01:53:00
8:41 PM,19.4,12.2,74,30.01,1.8,NE,17.3,-,0.00,Snow,Light Snow,50,2013-02-22 02:41:00
8:51 PM,19.4,12.2,74,30.01,2.0,NE,17.3,-,0.00,Snow,Light Snow,50,2013-02-22 02:51:00
8:53 PM,19.0,12.9,77,30.06,2.0,NE,18.4,-,0.00,Snow,Light Snow,50,2013-02-22 02:53:00
9:06 PM,19.4,12.2,74,30.01,4.0,ENE,19.6,24.2,0.00,Snow,Light Snow,60,2013-02-22 03:06:00
9:14 PM,19.4,14.0,80,30.00,5.0,ENE,18.4,24.2,0.00,Snow,Light Snow,60,2013-02-22 03:14:00
9:53 PM,19.0,14.0,81,30.03,4.0,NE,18.4,-,0.01,Snow,Light Snow,50,2013-02-22 03:53:00
10:06 PM,19.4,14.0,80,29.97,2.0,NE,18.4,-,0.00,Snow,Light Snow,50,2013-02-22 04:06:00
10:15 PM,19.4,14.0,80,29.97,1.8,NE,17.3,-,0.00,Snow,Light Snow,50,2013-02-22 04:15:00
10:53 PM,19.0,14.0,81,30.01,1.0,ENE,12.7,-,0.01,Snow,Light Snow,60,2013-02-22 04:53:00
11:03 PM,19.4,15.8,86,29.96,0.8,NE,15.0,-,0.01,Snow,Light Snow,50,2013-02-22 05:03:00
11:13 PM,19.4,15.8,86,29.96,0.8,NE,12.7,-,0.01,Snow,Light Snow,50,2013-02-22 05:13:00
11:53 PM,19.0,15.1,85,29.97,0.8,NE,17.3,-,0.02,Snow,Light Snow,50,2013-02-22 05:53:00